Вернуться в каталог

STARLINK-35478

АктивенСвязьVLEO
NORAD 65917·PAYLOAD·🇺🇸 United States

Запущен Oct 8, 2025 с Vandenberg Space Force Base

Loading…

Ближайшие Пролёты (ближайшие 24 часа)

TLE

СвежийSource: CelesTrak SupGP

Эпоха: Sep 14, 2026, 21:28 UTC

1 65917C 25225H   26257.89493056  .00005889  00000+0  17399-3 0  2578
2 65917  53.1603   4.0587 0001263  73.2260 354.1639 15.34387641    18

Отслеживайте STARLINK-35478 в реальном времени с AllMySat

Download on the App Store